Location: Darlington Observatory
(36.4817°N, 105.8156°W)
Time: 17:28:40
(UTC-06:00)

Daily predictions for brighter satellites

Satellite Brightness Start Highest point End
(mag) Time Altitude Azimuth Time Altitude Azimuth Time Altitude Azimuth
Cosmos 1777 Rocket 4.3 19:52:45 10° NNW 19:58:00 75° WSW 20:03:15 10° S
NOSS 3-4 (A) 3.9 19:54:52 10° NNW 20:01:59 88° ENE 20:09:31 10° SSE
NOSS 3-4 (C) 3.9 19:55:00 10° NNW 20:02:07 87° ENE 20:09:39 10° SSE
Resurs 1-3 3.7 19:58:37 10° SSE 20:02:55 60° ENE 20:07:15 10° N
CZ-4B DEB 3.4 20:01:18 10° SE 20:04:20 37° ENE 20:07:25 10° N
FengYun 1-2 T 4.4 19:59:31 10° SSE 20:05:03 60° ENE 20:10:33 10° N
Okean 2 3.4 20:03:03 10° N 20:07:14 84° E 20:11:21 10° S
Helios 1B rocket 3.0 20:04:54 10° N 20:08:59 65° WNW 20:13:02 10° SSW
Cosmos 2123 Rocket 4.0 20:03:09 10° N 20:09:16 62° E 20:15:22 10° SSE
Cosmos 2297 Rocket 2.4 20:05:55 10° NNW 20:11:28 52° ENE 20:16:57 10° SE
Cosmos 2082 3.7 20:07:43 10° NNW 20:13:21 72° ENE 20:18:57 10° SSE
SL-24 R/B - RUBIN 2 4.3 20:09:10 10° SSW 20:14:53 83° ESE 20:21:20 10° NNE
Meteor 1-5 Rocket 4.4 20:11:04 10° SSW 20:16:22 73° W 20:21:53 10° N
Meteor 1-12 Rocket 4.3 20:11:42 10° S 20:17:18 60° E 20:23:03 10° NNE
Spot 2 Rocket 3.9 20:13:12 10° S 20:18:16 69° WSW 20:23:21 10° NNW
ATLAS 2A CENTAUR R/B 3.7 20:16:20 10° WSW 20:19:12 13° SW 20:21:00 10° SSW
Cosmos 1346 Rocket 2.9 20:16:25 10° N 20:20:23 80° W 20:24:24 10° S
Iridium 4 Rocket 3.9 20:17:20 10° NNE 20:21:46 34° E 20:25:49 10° SSE
Cosmos 1934 Rocket 4.5 20:22:06 10° SSW 20:28:10 65° W 20:34:23 10° N
Envisat 4.5 20:26:38 14° E 20:29:01 19° ENE 20:32:29 10° NNE
Lacrosse 5 2.7 20:24:53 10° NNW 20:29:33 36° NE 20:32:58 16° E
Resurs 01 Rocket 2.7 20:25:34 10° S 20:29:50 48° W 20:34:09 10° NNW
Cosmos 1937 Rocket 4.4 20:27:13 10° N 20:31:55 31° ENE 20:35:08 17° ESE
Centaur D-1A AC-32 3.8 20:29:58 10° WSW 20:33:01 18° SSW 20:34:55 12° SSE
BREEZE-M DEB (TANK) 4.2 20:33:00 10° NNE 20:33:45 11° NNE 20:34:36 10° NE
Cosmos 2298 Rocket 4.2 20:30:34 10° N 20:35:46 53° ENE 20:40:11 14° SE
Cosmos 1743 3.8 20:34:26 18° SE 20:36:14 25° E 20:39:28 10° NE
Cosmos 1153 Rocket 4.4 20:32:11 10° S 20:38:19 71° E 20:44:26 10° NNE
Cosmos 1697 Rocket 2.6 20:37:32 10° SSW 20:43:10 81° ESE 20:48:50 10° NNE
Cosmos 1447 Rocket 4.5 20:41:29 10° N 20:47:49 73° E 20:54:09 10° SSE
Cosmos 1066 Rocket 4.3 20:45:02 10° N 20:50:40 57° E 20:55:20 16° SSE
ERS-1 Rocket 3.5 20:48:35 23° ESE 20:51:07 39° ENE 20:55:45 10° N
CZ-4 DEB 3.5 20:51:47 32° ENE 20:51:52 32° ENE 20:54:43 10° N
RESURS DK-1 2.8 20:49:27 10° N 20:53:25 43° ENE 20:54:48 31° ESE
OTV 4 2.3 20:51:27 10° WSW 20:53:44 20° SSW 20:54:31 18° S
Cosmos 1802 Rocket 4.3 20:49:28 10° SSE 20:55:32 47° E 21:01:38 10° NNE
SL-16 R/B 3.8 20:57:53 16° ENE 20:57:53 16° ENE 20:59:41 10° NE
USA 186 1.9 20:54:35 17° S 20:56:45 64° W 20:59:36 10° NNW
Cosmos 2150 Rocket 3.9 20:55:54 10° NNW 21:01:05 79° ENE 21:04:23 23° SSE
Cosmos 2016 Rocket 4.3 20:58:34 17° SSE 21:02:54 44° E 21:08:42 10° NNE
Cosmos 1825 Rocket 4.0 20:59:06 10° N 21:03:16 40° E 21:04:04 37° ESE
Cosmos 1763 Rocket 3.5 20:58:20 10° S 21:03:17 54° ESE 21:08:14 10° NNE
ALOS 3.2 20:59:01 10° S 21:03:31 48° W 21:08:02 10° NNW
H-2A R/B 3.6 20:59:47 10° S 21:03:33 51° W 21:07:24 10° NNW
OAO 2 Rocket 3.3 21:00:08 10° W 21:05:07 74° S 21:07:11 36° ESE
Cosmos 1980 Rocket 2.1 21:01:32 10° SSW 21:07:11 77° ESE 21:12:54 10° NNE
Cosmos 1898 Rocket 3.6 21:08:47 10° NNW 21:14:04 74° WSW 21:17:26 22° S
H-2A R/B 3.0 21:15:02 30° ENE 21:15:02 30° ENE 21:18:16 10° N
Cosmos 2173 Rocket 3.9 21:08:27 10° S 21:14:48 79° E 21:21:09 10° N
Cosmos 1953 Rocket 4.1 21:10:45 10° N 21:14:58 40° E 21:15:00 40° E
Cosmos 2098 Rocket 4.4 21:12:46 28° SE 21:15:39 43° E 21:21:08 10° NNE
Cosmos 2084 4.0 21:13:25 10° NW 21:17:28 53° WSW 21:19:05 33° S
Cosmos 1666 4.5 21:20:21 20° NE 21:20:21 20° NE 21:21:45 10° NNE
Tiangong 1 1.9 21:19:38 10° WNW 21:22:11 46° NNW 21:22:11 46° NNW
DELTA 2 R/B (1) 3.8 21:17:32 10° WNW 21:22:59 56° SSW 21:24:35 41° SSE
BREEZE-M DEB (TANK) 4.3 21:06:01 10° WSW 21:23:38 70° NNW 21:27:44 15° NE
Nimbus 7 Rocket 4.5 21:21:02 10° NNE 21:27:00 57° ESE 21:29:40 32° SSE
YAOGAN 11 4.2 21:25:40 40° S 21:27:16 78° WSW 21:31:44 10° NNW
Cosmos 841 Rocket 3.3 21:22:26 10° SSW 21:27:40 82° ESE 21:32:54 10° NNE
Lacrosse 5 rocket 3.5 21:26:34 10° W 21:28:46 15° WSW 21:30:06 13° SW
Cosmos 2100 Rocket 4.3 21:25:40 10° SSW 21:31:55 69° W 21:38:08 10° N
Cosmos 1758 Rocket 3.9 21:29:08 10° N 21:32:44 49° NE 21:32:44 49° NE
Cosmos 2263 Rocket 3.9 21:31:02 10° NNE 21:34:32 18° NE 21:34:32 18° NE
ASTEX 1 3.5 21:33:57 10° NNE 21:38:29 57° ENE 21:38:29 57° ENE
Cosmos 1340 3.0 21:35:36 10° N 21:38:50 62° NNW 21:38:50 62° NNW
Cosmos 2322 Rocket 2.5 21:42:28 47° ENE 21:42:28 47° ENE 21:46:51 10° NNE
deb Chang Zheng 4 3.6 21:38:55 10° NNE 21:43:01 75° NNE 21:43:01 75° NNE
Tsikada Rocket 4.1 21:40:33 10° N 21:46:51 55° E 21:47:16 54° E
Meteor 1-15 Rocket 4.2 21:50:29 68° SE 21:50:55 71° E 21:56:46 10° NNE
MetOp-A 4.1 21:54:18 69° ENE 21:54:18 69° ENE 21:59:28 10° N
Meteor 2-9 Rocket 4.0 21:54:07 75° S 21:54:37 88° E 22:00:03 10° N
Cosmos 2058 Rocket 3.6 21:59:39 58° NNW 21:59:39 58° NNW 22:03:26 10° N
Cosmos 1939 Rocket 4.0 22:00:06 40° W 22:00:06 40° W 22:04:02 10° NNW
Cosmos 1725 Rocket 3.9 22:02:49 61° S 22:04:00 87° W 22:10:17 10° N
Cosmos 2227 4.3 22:00:48 10° NNW 22:06:31 68° WSW 22:06:52 66° SW
Envisat 3.8 22:06:51 43° SW 22:07:38 46° W 22:12:31 10° NNW
Lacrosse 5 3.1 22:07:54 10° WNW 22:12:11 34° WSW 22:12:11 34° WSW
SPOT 5 3.5 22:17:27 55° WNW 22:17:27 55° WNW 22:21:30 10° NNW
Cosmos 2233 Rocket 4.2 22:27:36 62° NNE 22:27:36 62° NNE 22:32:42 10° N
H-2A R/B 3.8 22:37:08 24° N 22:37:08 24° N 22:39:09 10° N
Terra 4.0 22:38:08 18° NNE 22:38:08 18° NNE 22:39:31 10° N
ARGOS 4.0 22:39:15 46° NNW 22:39:15 46° NNW 22:42:59 10° NNW
SL-16 R/B 3.0 22:39:37 49° NW 22:39:37 49° NW 22:44:52 10° N
Cosmos 2360 Rocket 4.4 22:56:06 16° NNE 22:56:06 16° NNE 22:57:11 10° NNE
Milstar 3 Cent rocket 4.4 22:42:27 10° W 22:58:51 42° SSW 22:59:05 42° SSW
USA 215 4.1 23:08:54 43° N 23:08:54 43° N 23:14:03 10° NW
Cosmos 2263 Rocket 3.9 23:13:37 10° NNW 23:16:14 28° NW 23:16:14 28° NW
Cosmos 2322 Rocket 4.4 23:24:08 17° WNW 23:25:46 19° NW 23:29:45 10° N
